Location: Almena Post Office
(39.8928°N, 99.7066°W)
Time: 15:24:10
(UTC+00:00)

Daily predictions for brighter satellites

Satellite Brightness Start Highest point End
(mag) Time Altitude Azimuth Time Altitude Azimuth Time Altitude Azimuth
STARLINK-1145 2.9 12:02:11 39° W 12:02:52 51° SW 12:05:42 10° SSE
STARLINK-1172 2.9 12:02:23 39° W 12:03:05 50° SW 12:05:55 10° SSE
STARLINK-1182 2.9 12:02:50 38° W 12:03:32 50° SW 12:06:22 10° SSE
STARLINK-1140 3.1 12:01:44 25° WNW 12:03:40 74° SW 12:07:13 10° SE
STARLINK-1164 2.9 12:03:02 38° W 12:03:45 49° SW 12:06:35 10° SSE
STARLINK-1168 2.9 12:03:16 38° W 12:03:59 49° SW 12:06:49 10° SSE
STARLINK-1183 2.9 12:03:54 36° W 12:04:39 48° SW 12:07:29 10° SSE
STARLINK-1181 2.9 12:04:08 36° W 12:04:53 48° SW 12:07:43 10° SSE
STARLINK-1196 3.0 12:04:45 35° W 12:05:33 47° SW 12:08:23 10° SSE
OAO 2 Rocket 4.4 12:01:59 15° SW 12:05:54 38° SSE 12:10:47 10° E
STARLINK-1186 3.0 12:05:13 35° W 12:06:00 46° SW 12:08:50 10° SSE
STARLINK-1185 3.0 12:05:25 34° W 12:06:14 46° SW 12:09:02 10° SSE
STARLINK-1175 3.0 12:05:38 34° W 12:06:27 46° SW 12:09:16 10° SSE
STARLINK-1147 3.0 12:05:51 34° W 12:06:40 45° SW 12:09:29 10° SSE
STARLINK-1156 3.2 12:04:47 23° WNW 12:06:49 69° SW 12:10:23 10° SE
STARLINK-1146 3.0 12:06:03 33° W 12:06:54 45° SW 12:09:43 10° SSE
STARLINK-1152 3.0 12:06:16 33° W 12:07:07 45° SW 12:09:56 10° SSE
STARLINK-1195 3.0 12:06:29 33° W 12:07:20 44° SW 12:10:09 10° SSE
FENGYUN 3A 3.6 12:01:59 10° N 12:07:26 78° WNW 12:12:51 10° SSW
STARLINK-1137 3.1 12:06:43 33° W 12:07:35 44° SW 12:10:23 10° SSE
Cosmos 1862 4.1 12:04:10 10° NNW 12:07:38 29° W 12:11:06 10° SSW
STARLINK-1142 3.1 12:06:56 32° W 12:07:48 44° SW 12:10:36 10° SSE
STARLINK-1127 3.1 12:07:09 32° W 12:08:01 44° SW 12:10:49 10° SSE
STARLINK-1184 3.1 12:07:22 32° W 12:08:15 43° SW 12:11:03 10° SSE
STARLINK-1193 3.1 12:07:35 32° W 12:08:28 43° SW 12:11:16 10° SSE
STARLINK-1194 3.1 12:07:48 31° W 12:08:41 43° SW 12:11:28 10° SSE
Meteor 1-31 Rocket 3.8 12:06:33 10° NNW 12:09:41 24° WNW 12:10:40 22° W
STARLINK-1148 3.2 12:07:51 22° WNW 12:10:00 64° SW 12:13:33 10° SE
Cosmos 1346 Rocket 2.6 12:07:29 10° N 12:11:23 83° W 12:15:17 10° S
Cosmos 2233 Rocket 4.0 12:05:38 10° N 12:11:58 85° W 12:18:17 10° S
Cosmos 2228 Rocket 4.1 12:08:08 10° SSE 12:12:23 50° E 12:16:42 10° NNE
STARLINK-1158 3.3 12:10:54 20° WNW 12:13:12 59° SW 12:16:43 10° SE
Cosmos 1340 2.6 12:09:32 10° NNW 12:13:14 57° W 12:16:55 10° S
STARLINK-1170 3.6 12:13:33 25° WSW 12:14:06 27° SW 12:16:31 10° SSE
MOS 1-B 4.3 12:08:49 10° NNE 12:14:40 85° WNW 12:20:28 10° SSW
STARLINK-1162 3.4 12:15:16 19° WNW 12:17:35 50° SW 12:20:59 10° SSE
Sich 1 4.1 12:14:28 10° NW 12:17:53 23° W 12:21:18 10° SW
PSLV R/B 4.0 12:15:30 10° N 12:19:11 47° WNW 12:22:56 10° SSW
STARLINK-1157 3.5 12:18:03 17° WNW 12:20:27 47° SW 12:23:51 10° SSE
STARLINK-1159 3.6 12:20:57 16° WNW 12:23:28 43° SW 12:26:50 10° SSE
STARLINK-1171 3.7 12:23:54 15° WNW 12:26:33 41° SW 12:29:52 10° SSE
ADEOS Rocket 3.6 12:20:04 10° SSE 12:26:33 73° ENE 12:33:49 10° N
Cosmos 1151 Rocket 3.6 12:23:47 10° SW 12:27:47 36° WNW 12:31:50 10° N
STARLINK-1155 3.8 12:26:45 14° WNW 12:29:30 38° SW 12:32:47 10° SSE
USA 267 3.7 12:24:25 10° SSE 12:30:35 44° SW 12:36:47 10° WNW
COSMOS 2455 3.1 12:26:19 10° NNW 12:32:22 74° ENE 12:38:22 10° SE
STARLINK-1166 3.9 12:29:42 13° WNW 12:32:33 35° SW 12:35:48 10° SSE
STARLINK-1165 4.0 12:32:37 12° WNW 12:35:34 33° SW 12:38:46 10° SSE
Cosmos 1782 3.2 12:32:46 10° S 12:36:46 71° E 12:40:48 10° NNE
PAYLOAD B 4.2 12:31:26 10° N 12:36:57 68° WNW 12:42:24 10° SSW
Cosmos 1470 Rocket 3.8 12:33:16 10° NNW 12:37:35 47° W 12:41:52 10° SSW
STARLINK-1169 4.1 12:35:32 11° WNW 12:38:35 31° SW 12:41:43 10° SSE
STARLINK-1178 4.2 12:38:30 10° WNW 12:41:36 29° SW 12:44:40 10° SSE
NOSS 3-4 (A) 3.9 12:34:27 10° NW 12:41:37 82° WSW 12:49:28 10° SSE
NOSS 3-4 (C) 3.9 12:34:33 10° NW 12:41:44 83° WSW 12:49:34 10° SSE
USA 116 3.4 12:39:08 10° S 12:42:06 43° W 12:45:08 10° NNW
STARLINK-1120 4.3 12:41:31 10° WNW 12:44:33 27° SW 12:47:34 10° S
Cosmos 1814 Rocket 4.0 12:40:25 10° NNW 12:45:39 72° WSW 12:50:55 10° S
DELTA 2 R/B (1) 3.8 12:40:52 10° W 12:46:23 65° SSW 12:51:53 10° ESE
ISS -1.5 12:44:58 10° NW 12:46:57 15° NNW 12:48:55 10° NNE
STARLINK-1131 4.4 12:44:38 10° WNW 12:47:36 25° SW 12:50:32 10° S
Meteor 1-25 Rocket 4.2 12:43:56 10° NNW 12:49:27 66° W 12:54:58 10° S
Cosmos 841 Rocket 3.6 12:47:09 10° NNW 12:52:16 55° WSW 12:57:23 10° S
Atlas Centaur 2 3.9 12:47:03 10° WSW 12:54:19 39° S 13:02:04 10° SE
